KAC176 OKKK-LEAL

Flight info

Callsign KAC176
Flight time N/A
Altitude 40000
Route RALKA DCT TASMI DCT DELMI DCT TAN DCT KTN DCT NIKAS DCT VESAR DCT AYT DCT IMR DCT KEA DCT KOR DCT RUTOM DCT NERAR DCT QUENN DCT GOKMI DCT SUPUX DCT RIPAL DCT GERVU
Aircraft A343/H-SDE2E3FGHIJ4J5M1RWXY/LB1D1

Departure

Time 2026-04-29 15:54
Airport Kuwait International Airport (OKKK)

Arrival

Time N/A
Airport Alicante-Elche Miguel Hernández Airport (LEAL)
Time Latitude Longitude Altitude Speed Heading
2026-04-29 15:21 29.24600 47.96234 171 ft 0 kts 65°
2026-04-29 15:39 29.24599 47.96233 171 ft 2 kts 65°
2026-04-29 15:39 29.24588 47.96206 170 ft 4 kts 65°
2026-04-29 15:40 29.24577 47.96178 170 ft 4 kts 65°
2026-04-29 15:40 29.24565 47.96151 169 ft 3 kts 65°
2026-04-29 15:40 29.24558 47.96137 169 ft 4 kts 125°
2026-04-29 15:40 29.24576 47.96124 169 ft 4 kts 156°
2026-04-29 15:41 29.24598 47.96112 169 ft 2 kts 155°
2026-04-29 15:41 29.24599 47.96111 169 ft 0 kts 155°
2026-04-29 15:44 29.24598 47.96112 169 ft 1 kts 155°
2026-04-29 15:44 29.24580 47.96122 169 ft 7 kts 155°
2026-04-29 15:44 29.24506 47.96159 169 ft 14 kts 156°
2026-04-29 15:44 29.24414 47.96208 168 ft 15 kts 153°
2026-04-29 15:45 29.24318 47.96259 168 ft 16 kts 156°
2026-04-29 15:45 29.24217 47.96313 168 ft 16 kts 154°
2026-04-29 15:45 29.24112 47.96371 168 ft 17 kts 155°
2026-04-29 15:45 29.24003 47.96426 168 ft 17 kts 155°
2026-04-29 15:46 29.23892 47.96486 168 ft 18 kts 154°
2026-04-29 15:46 29.23778 47.96546 168 ft 18 kts 155°
2026-04-29 15:46 29.23664 47.96608 168 ft 19 kts 154°
2026-04-29 15:46 29.23544 47.96673 167 ft 20 kts 155°
2026-04-29 15:47 29.23419 47.96739 167 ft 20 kts 155°
2026-04-29 15:47 29.23298 47.96804 168 ft 19 kts 155°
2026-04-29 15:47 29.23175 47.96868 169 ft 19 kts 156°
2026-04-29 15:47 29.23058 47.96929 171 ft 18 kts 155°
2026-04-29 15:48 29.22944 47.96989 172 ft 18 kts 154°
2026-04-29 15:48 29.22827 47.97051 171 ft 19 kts 156°
2026-04-29 15:48 29.22708 47.97115 171 ft 19 kts 154°
2026-04-29 15:48 29.22587 47.97181 171 ft 19 kts 155°
2026-04-29 15:49 29.22462 47.97246 171 ft 20 kts 155°
2026-04-29 15:49 29.22337 47.97312 171 ft 20 kts 154°
2026-04-29 15:49 29.22212 47.97379 171 ft 20 kts 155°
2026-04-29 15:49 29.22083 47.97448 170 ft 21 kts 155°
2026-04-29 15:50 29.21952 47.97518 170 ft 21 kts 155°
2026-04-29 15:50 29.21820 47.97588 170 ft 21 kts 155°
2026-04-29 15:50 29.21689 47.97658 171 ft 21 kts 155°
2026-04-29 15:50 29.21564 47.97723 172 ft 17 kts 155°
2026-04-29 15:51 29.21475 47.97770 173 ft 10 kts 155°
2026-04-29 15:51 29.21413 47.97803 173 ft 10 kts 155°
2026-04-29 15:51 29.21349 47.97838 174 ft 10 kts 155°
2026-04-29 15:51 29.21299 47.97861 174 ft 4 kts 168°
2026-04-29 15:52 29.21273 47.97852 174 ft 2 kts 211°
2026-04-29 15:52 29.21257 47.97829 174 ft 1 kts 242°
2026-04-29 15:52 29.21253 47.97818 174 ft 6 kts 245°
2026-04-29 15:53 29.21248 47.97746 174 ft 10 kts 287°
2026-04-29 15:53 29.21285 47.97672 175 ft 11 kts 301°
2026-04-29 15:53 29.21321 47.97609 174 ft 6 kts 313°
2026-04-29 15:53 29.21373 47.97578 173 ft 15 kts 337°
2026-04-29 15:54 29.21662 47.97424 171 ft 79 kts 334°
2026-04-29 15:54 29.22343 47.97061 169 ft 135 kts 335°
2026-04-29 15:54 29.23316 47.96547 312 ft 166 kts 336°
2026-04-29 15:54 29.24368 47.95950 868 ft 171 kts 335°
2026-04-29 15:55 29.25469 47.95367 1466 ft 180 kts 336°
2026-04-29 15:55 29.26662 47.94742 1986 ft 194 kts 336°
2026-04-29 15:55 29.27944 47.94149 2511 ft 206 kts 345°
2026-04-29 15:55 29.29442 47.93894 2837 ft 234 kts 355°
2026-04-29 15:56 29.31138 47.93794 3442 ft 251 kts 357°
2026-04-29 15:56 29.32902 47.93732 4328 ft 256 kts 357°
2026-04-29 15:56 29.34703 47.93677 5219 ft 261 kts 356°
2026-04-29 15:56 29.36539 47.93624 6107 ft 267 kts 355°
2026-04-29 15:57 29.38418 47.93570 6886 ft 274 kts 355°
2026-04-29 15:57 29.40356 47.93514 7655 ft 283 kts 354°
2026-04-29 15:57 29.42349 47.93458 8433 ft 290 kts 354°
2026-04-29 15:57 29.44397 47.93401 9227 ft 298 kts 354°
2026-04-29 15:58 29.46497 47.93343 9963 ft 306 kts 354°
2026-04-29 15:58 29.48663 47.93281 10497 ft 320 kts 354°
2026-04-29 15:58 29.50938 47.93213 10805 ft 341 kts 354°
2026-04-29 15:58 29.53378 47.93143 11091 ft 361 kts 354°
2026-04-29 15:59 29.55952 47.93071 11445 ft 376 kts 354°
2026-04-29 15:59 29.58599 47.93001 12012 ft 384 kts 354°
2026-04-29 15:59 29.61289 47.92930 12675 ft 389 kts 354°
2026-04-29 15:59 29.64018 47.92857 13333 ft 395 kts 354°
2026-04-29 16:00 29.66779 47.92783 13984 ft 399 kts 354°
2026-04-29 16:00 29.69569 47.92707 14649 ft 403 kts 354°
2026-04-29 16:00 29.72388 47.92629 15320 ft 406 kts 354°
2026-04-29 16:00 29.75191 47.92552 15976 ft 410 kts 354°
2026-04-29 16:01 29.78052 47.92473 16630 ft 414 kts 354°
2026-04-29 16:01 29.80952 47.92393 17283 ft 418 kts 354°
2026-04-29 16:01 29.83871 47.92312 17937 ft 421 kts 354°
2026-04-29 16:01 29.86812 47.92230 18555 ft 425 kts 354°
2026-04-29 16:02 29.89787 47.92148 19118 ft 429 kts 354°
2026-04-29 16:02 29.92784 47.92065 19674 ft 433 kts 354°
2026-04-29 16:02 29.95807 47.91953 20216 ft 435 kts 351°
2026-04-29 16:02 29.98795 47.91458 20767 ft 432 kts 341°
2026-04-29 16:03 30.01613 47.90325 21285 ft 427 kts 329°
2026-04-29 16:03 30.04147 47.88586 21839 ft 422 kts 317°
2026-04-29 16:03 30.06380 47.86404 22398 ft 419 kts 310°
2026-04-29 16:03 30.08392 47.83974 22957 ft 418 kts 306°
2026-04-29 16:04 30.10290 47.81412 23473 ft 420 kts 304°
2026-04-29 16:04 30.12148 47.78795 23913 ft 422 kts 303°
2026-04-29 16:04 30.13986 47.76196 24356 ft 424 kts 303°
2026-04-29 16:04 30.15898 47.73524 24782 ft 427 kts 303°
2026-04-29 16:05 30.17788 47.70922 25207 ft 430 kts 303°
2026-04-29 16:05 30.19723 47.68287 25634 ft 432 kts 303°
2026-04-29 16:05 30.21680 47.65641 26055 ft 434 kts 303°
2026-04-29 16:05 30.23652 47.62984 26451 ft 436 kts 303°
2026-04-29 16:06 30.25643 47.60303 26827 ft 438 kts 303°
2026-04-29 16:06 30.27633 47.57620 27251 ft 440 kts 303°
2026-04-29 16:06 30.29635 47.54918 27633 ft 442 kts 303°
2026-04-29 16:06 30.31643 47.52203 27996 ft 445 kts 302°
2026-04-29 16:07 30.33658 47.49478 28398 ft 446 kts 302°
2026-04-29 16:07 30.34991 47.47673 28653 ft 447 kts 302°
2026-04-29 16:07 30.37703 47.43998 29124 ft 450 kts 302°
2026-04-29 16:07 30.39738 47.41238 29446 ft 452 kts 302°
2026-04-29 16:08 30.41783 47.38460 29775 ft 454 kts 302°
2026-04-29 16:08 30.43838 47.35669 30073 ft 456 kts 301°
2026-04-29 16:08 30.45875 47.32901 30333 ft 458 kts 301°
2026-04-29 16:08 30.47940 47.30095 30727 ft 456 kts 301°
2026-04-29 16:09 30.49998 47.27300 31118 ft 455 kts 301°
2026-04-29 16:09 30.52047 47.24514 31476 ft 454 kts 300°
2026-04-29 16:09 30.54093 47.21728 31821 ft 453 kts 300°
2026-04-29 16:09 30.56134 47.18945 32164 ft 452 kts 300°
2026-04-29 16:10 30.58176 47.16158 32506 ft 452 kts 300°
2026-04-29 16:10 30.60209 47.13380 32835 ft 451 kts 299°
2026-04-29 16:10 30.62237 47.10608 33154 ft 450 kts 299°
2026-04-29 16:10 30.64264 47.07835 33492 ft 450 kts 299°
2026-04-29 16:11 30.66292 47.05059 33815 ft 449 kts 299°
2026-04-29 16:11 30.68250 47.02378 34091 ft 449 kts 298°
2026-04-29 16:11 30.70224 46.99671 34329 ft 448 kts 298°
2026-04-29 16:11 30.72238 46.96909 34582 ft 447 kts 298°
2026-04-29 16:12 30.74251 46.94144 34839 ft 448 kts 299°
2026-04-29 16:12 30.75587 46.92309 34979 ft 448 kts 299°
2026-04-29 16:12 30.78275 46.88613 35317 ft 447 kts 299°
2026-04-29 16:12 30.80280 46.85858 35583 ft 446 kts 298°
2026-04-29 16:13 30.82279 46.83107 35834 ft 445 kts 298°
2026-04-29 16:13 30.84277 46.80356 36068 ft 444 kts 298°
2026-04-29 16:13 30.86269 46.77610 36340 ft 444 kts 299°
2026-04-29 16:13 30.88258 46.74864 36546 ft 444 kts 298°
2026-04-29 16:14 30.90247 46.72117 36774 ft 443 kts 298°
2026-04-29 16:14 30.92234 46.69372 37014 ft 443 kts 298°
2026-04-29 16:14 30.94221 46.66627 37252 ft 442 kts 298°
2026-04-29 16:14 30.96194 46.63898 37502 ft 441 kts 298°
2026-04-29 16:15 30.98167 46.61168 37721 ft 440 kts 298°
2026-04-29 16:15 31.00137 46.58438 37968 ft 439 kts 298°
2026-04-29 16:15 31.02104 46.55711 38193 ft 439 kts 298°
2026-04-29 16:15 31.04067 46.52987 38390 ft 438 kts 298°
2026-04-29 16:16 31.06028 46.50265 38589 ft 438 kts 298°
2026-04-29 16:16 31.07987 46.47543 38745 ft 438 kts 298°
2026-04-29 16:16 31.09922 46.44852 38889 ft 438 kts 298°
2026-04-29 16:16 31.11878 46.42129 39023 ft 438 kts 298°
2026-04-29 16:17 31.13835 46.39403 39169 ft 438 kts 298°
2026-04-29 16:17 31.15791 46.36678 39293 ft 439 kts 298°
2026-04-29 16:17 31.17749 46.33947 39442 ft 438 kts 298°
2026-04-29 16:17 31.19705 46.31221 39592 ft 438 kts 298°
2026-04-29 16:18 31.21663 46.28488 39727 ft 437 kts 298°
2026-04-29 16:18 31.23612 46.25765 39856 ft 438 kts 298°
2026-04-29 16:18 31.24911 46.23948 39937 ft 439 kts 298°
2026-04-29 16:19 31.28847 46.18429 39910 ft 443 kts 299°
2026-04-29 16:19 31.32791 46.12910 39914 ft 441 kts 299°
2026-04-29 16:20 31.36727 46.07394 39922 ft 441 kts 299°
2026-04-29 16:20 31.40650 46.01880 39927 ft 441 kts 299°
2026-04-29 16:21 31.44578 45.96349 39925 ft 442 kts 299°
2026-04-29 16:21 31.48488 45.90839 39922 ft 442 kts 299°
2026-04-29 16:22 31.52415 45.85296 39936 ft 442 kts 299°
2026-04-29 16:22 31.56347 45.79738 39921 ft 443 kts 299°
2026-04-29 16:23 31.60283 45.74168 39923 ft 442 kts 299°
2026-04-29 16:23 31.64185 45.68638 39921 ft 442 kts 299°
2026-04-29 16:24 31.68089 45.63095 39921 ft 443 kts 299°
2026-04-29 16:24 31.72006 45.57527 39928 ft 443 kts 299°
2026-04-29 16:25 31.75900 45.51981 39935 ft 443 kts 299°
2026-04-29 16:25 31.79819 45.46394 39927 ft 443 kts 299°
2026-04-29 16:26 31.83740 45.40794 39923 ft 443 kts 299°
2026-04-29 16:26 31.87590 45.35289 39926 ft 443 kts 299°
2026-04-29 16:27 31.91473 45.29728 39925 ft 443 kts 299°
2026-04-29 16:27 31.95386 45.24117 39925 ft 443 kts 299°
2026-04-29 16:28 31.99299 45.18496 39939 ft 443 kts 299°
2026-04-29 16:28 32.03207 45.12874 39925 ft 444 kts 299°
2026-04-29 16:29 32.07118 45.07239 39928 ft 444 kts 299°
2026-04-29 16:29 32.11025 45.01602 39941 ft 444 kts 299°
2026-04-29 16:30 32.14924 44.95968 39927 ft 443 kts 300°
2026-04-29 16:30 32.18807 44.90351 39927 ft 443 kts 300°
2026-04-29 16:31 32.22708 44.84697 39928 ft 443 kts 299°
2026-04-29 16:31 32.26602 44.79044 39930 ft 443 kts 299°
2026-04-29 16:32 32.30500 44.73377 39930 ft 443 kts 299°
2026-04-29 16:32 32.34394 44.67709 39933 ft 443 kts 299°
2026-04-29 16:33 32.40195 44.59247 39935 ft 444 kts 300°
2026-04-29 16:33 32.44083 44.53563 39929 ft 444 kts 300°
2026-04-29 16:34 32.47977 44.47865 39931 ft 445 kts 300°
2026-04-29 16:34 32.51866 44.42165 39929 ft 444 kts 300°
2026-04-29 16:35 32.55753 44.36459 39931 ft 445 kts 300°
2026-04-29 16:35 32.59642 44.30741 39932 ft 445 kts 300°
2026-04-29 16:36 32.63532 44.25012 39926 ft 446 kts 300°
2026-04-29 16:36 32.67406 44.19299 39931 ft 446 kts 300°
2026-04-29 16:37 32.71300 44.13548 39929 ft 447 kts 300°
2026-04-29 16:37 32.74559 44.08727 39932 ft 447 kts 300°
2026-04-29 16:38 32.79081 44.02028 39955 ft 447 kts 301°
2026-04-29 16:38 32.82975 43.96249 39928 ft 448 kts 301°
2026-04-29 16:39 32.86846 43.90495 39927 ft 448 kts 301°
2026-04-29 16:39 32.90737 43.84704 39927 ft 448 kts 300°
2026-04-29 16:40 32.94630 43.78900 39931 ft 448 kts 301°
2026-04-29 16:40 32.98514 43.73099 39926 ft 448 kts 301°
2026-04-29 16:41 33.02407 43.67278 39927 ft 449 kts 301°
2026-04-29 16:41 33.06272 43.61488 39922 ft 449 kts 301°
2026-04-29 16:42 33.10154 43.55664 39924 ft 448 kts 301°
2026-04-29 16:42 33.14036 43.49830 39942 ft 448 kts 301°
2026-04-29 16:43 33.17915 43.43992 39924 ft 449 kts 301°
2026-04-29 16:43 33.21793 43.38145 39921 ft 449 kts 301°
2026-04-29 16:44 33.25672 43.32289 39919 ft 449 kts 301°
2026-04-29 16:44 33.29413 43.26386 39919 ft 443 kts 295°
2026-04-29 16:45 33.31891 43.19801 39923 ft 428 kts 279°
2026-04-29 16:45 33.32741 43.12833 39919 ft 422 kts 270°
2026-04-29 16:46 33.33120 43.05813 39922 ft 423 kts 269°
2026-04-29 16:46 33.33438 42.98797 39921 ft 423 kts 269°
2026-04-29 16:47 33.33776 42.91774 39919 ft 423 kts 269°
2026-04-29 16:47 33.34129 42.84744 39922 ft 424 kts 269°
2026-04-29 16:48 33.34483 42.77757 39922 ft 424 kts 269°
2026-04-29 16:48 33.34826 42.70875 39922 ft 423 kts 269°
2026-04-29 16:49 33.35166 42.63972 39925 ft 423 kts 269°
2026-04-29 16:49 33.35507 42.56936 39930 ft 424 kts 269°
2026-04-29 16:50 33.35846 42.49873 39923 ft 424 kts 269°
2026-04-29 16:50 33.36179 42.42870 39928 ft 424 kts 269°
2026-04-29 16:51 33.36509 42.35826 39932 ft 424 kts 269°
2026-04-29 16:51 33.36835 42.28765 39930 ft 425 kts 269°
2026-04-29 16:52 33.37159 42.21690 39936 ft 425 kts 269°
2026-04-29 16:52 33.37479 42.14617 39937 ft 426 kts 270°
2026-04-29 16:53 33.37794 42.07532 39938 ft 427 kts 270°
2026-04-29 16:53 33.38102 42.00553 39941 ft 427 kts 269°
2026-04-29 16:54 33.38398 41.93738 39937 ft 427 kts 270°
2026-04-29 16:54 33.38703 41.86644 39938 ft 427 kts 269°
2026-04-29 16:55 33.39003 41.79547 39941 ft 427 kts 269°
2026-04-29 16:55 33.39299 41.72456 39944 ft 427 kts 270°
2026-04-29 16:56 33.39592 41.65344 39939 ft 428 kts 270°
2026-04-29 16:56 33.39882 41.58211 39942 ft 428 kts 270°
2026-04-29 16:57 33.40165 41.51142 39945 ft 428 kts 270°
2026-04-29 16:57 33.40447 41.44014 39941 ft 429 kts 270°
2026-04-29 16:58 33.40724 41.36883 39944 ft 428 kts 270°
2026-04-29 16:58 33.40997 41.29757 39945 ft 429 kts 270°
2026-04-29 16:59 33.41267 41.22619 39949 ft 429 kts 270°
2026-04-29 16:59 33.41528 41.15597 39949 ft 429 kts 270°
2026-04-29 17:00 33.41781 41.08665 39955 ft 430 kts 270°
2026-04-29 17:00 33.42039 41.01527 39955 ft 430 kts 270°
2026-04-29 17:01 33.42293 40.94369 39950 ft 430 kts 270°
2026-04-29 17:01 33.42543 40.87209 39949 ft 431 kts 270°
2026-04-29 17:02 33.42789 40.80037 39952 ft 431 kts 270°
2026-04-29 17:02 33.43031 40.72879 39952 ft 431 kts 270°
2026-04-29 17:03 33.43269 40.65709 39955 ft 431 kts 270°
2026-04-29 17:03 33.43503 40.58536 39955 ft 431 kts 270°
2026-04-29 17:04 33.43732 40.51369 39958 ft 431 kts 270°
2026-04-29 17:04 33.43957 40.44204 39960 ft 431 kts 270°
2026-04-29 17:05 33.44177 40.37067 39958 ft 431 kts 270°
2026-04-29 17:05 33.44394 40.29890 39956 ft 431 kts 270°
2026-04-29 17:06 33.44608 40.22717 39965 ft 431 kts 270°
2026-04-29 17:06 33.44817 40.15552 39958 ft 431 kts 270°
2026-04-29 17:07 33.44988 40.09584 39960 ft 431 kts 270°
2026-04-29 17:07 33.45189 40.02394 39971 ft 432 kts 270°
2026-04-29 17:08 33.45385 39.95253 39963 ft 432 kts 270°
2026-04-29 17:08 33.45579 39.88064 39963 ft 432 kts 270°
2026-04-29 17:09 33.45769 39.80871 39969 ft 432 kts 270°
2026-04-29 17:09 33.45949 39.73856 39968 ft 432 kts 270°
2026-04-29 17:10 33.46124 39.66918 39972 ft 433 kts 270°
2026-04-29 17:10 33.46298 39.59856 39972 ft 433 kts 270°
2026-04-29 17:11 33.46469 39.52769 39964 ft 433 kts 270°
2026-04-29 17:11 33.46639 39.45547 39964 ft 434 kts 270°
2026-04-29 17:12 33.46805 39.38324 39965 ft 434 kts 270°
2026-04-29 17:12 33.46939 39.32310 39975 ft 434 kts 270°
2026-04-29 17:13 33.47123 39.23866 39979 ft 434 kts 270°
2026-04-29 17:13 33.47276 39.16680 39972 ft 433 kts 270°
2026-04-29 17:14 33.47424 39.09466 39971 ft 433 kts 270°
2026-04-29 17:14 33.47569 39.02246 39963 ft 433 kts 270°
2026-04-29 17:15 33.47709 38.95034 39968 ft 433 kts 270°
2026-04-29 17:15 33.47845 38.87825 39976 ft 433 kts 271°
2026-04-29 17:16 33.47977 38.80615 39982 ft 433 kts 270°
2026-04-29 17:16 33.48105 38.73401 39977 ft 433 kts 270°
2026-04-29 17:17 33.48874 38.66270 39970 ft 435 kts 284°
2026-04-29 17:17 33.51290 38.59708 39986 ft 439 kts 297°
2026-04-29 17:18 33.54469 38.53588 39979 ft 441 kts 300°
2026-04-29 17:18 33.57718 38.47604 39980 ft 441 kts 300°
2026-04-29 17:19 33.61032 38.41464 39978 ft 441 kts 299°
2026-04-29 17:19 33.64321 38.35303 39985 ft 441 kts 299°
2026-04-29 17:20 33.67621 38.29089 39979 ft 441 kts 299°
2026-04-29 17:20 33.70920 38.22864 39980 ft 441 kts 299°
2026-04-29 17:21 33.74218 38.16631 39989 ft 441 kts 299°
2026-04-29 17:21 33.77506 38.10409 39984 ft 441 kts 299°
2026-04-29 17:22 33.80793 38.04178 39985 ft 441 kts 299°
2026-04-29 17:22 33.84051 37.97991 39988 ft 441 kts 299°
2026-04-29 17:23 33.87330 37.91756 39991 ft 440 kts 299°
2026-04-29 17:23 33.90592 37.85539 39988 ft 439 kts 299°
2026-04-29 17:24 33.93849 37.79323 40001 ft 439 kts 299°
2026-04-29 17:24 33.97106 37.73094 39998 ft 439 kts 299°
2026-04-29 17:25 34.00359 37.66864 40003 ft 438 kts 299°
2026-04-29 17:25 34.03579 37.60686 40007 ft 438 kts 299°
2026-04-29 17:26 34.06820 37.54458 40003 ft 438 kts 299°
2026-04-29 17:26 34.10060 37.48220 40005 ft 438 kts 299°
2026-04-29 17:27 34.13294 37.41983 40021 ft 438 kts 300°
2026-04-29 17:27 34.16526 37.35737 40009 ft 438 kts 300°
2026-04-29 17:28 34.19755 37.29489 40009 ft 438 kts 299°
2026-04-29 17:28 34.23267 37.23455 40022 ft 440 kts 304°
2026-04-29 17:29 34.27009 37.17602 40019 ft 439 kts 305°
2026-04-29 17:29 34.30119 37.12799 40024 ft 439 kts 305°
2026-04-29 17:30 34.34514 37.06001 40029 ft 438 kts 305°
2026-04-29 17:30 34.38262 37.00177 40029 ft 438 kts 305°
2026-04-29 17:31 34.42006 36.94345 40032 ft 438 kts 305°
2026-04-29 17:31 34.45722 36.88546 40028 ft 438 kts 305°
2026-04-29 17:32 34.49452 36.82714 40027 ft 438 kts 305°
2026-04-29 17:32 34.53183 36.76874 40020 ft 438 kts 305°
2026-04-29 17:33 34.56913 36.71026 40013 ft 437 kts 305°
2026-04-29 17:33 34.60630 36.65188 40012 ft 437 kts 305°
2026-04-29 17:34 34.64341 36.59348 40014 ft 437 kts 305°
2026-04-29 17:34 34.68054 36.53497 40033 ft 437 kts 305°
2026-04-29 17:35 34.73607 36.44729 40025 ft 435 kts 305°
2026-04-29 17:36 34.77298 36.38890 40024 ft 435 kts 305°
2026-04-29 17:36 34.80983 36.33050 40031 ft 435 kts 305°
2026-04-29 17:37 34.84643 36.27239 40029 ft 435 kts 305°
2026-04-29 17:37 34.88322 36.21388 40030 ft 435 kts 304°
2026-04-29 17:38 34.92000 36.15529 40032 ft 435 kts 304°
2026-04-29 17:38 34.95672 36.09670 40030 ft 435 kts 304°
2026-04-29 17:39 34.99339 36.03810 40031 ft 434 kts 304°
2026-04-29 17:39 35.02983 35.97977 40031 ft 435 kts 304°
2026-04-29 17:40 35.06646 35.92104 40029 ft 435 kts 304°
2026-04-29 17:40 35.10310 35.86218 40029 ft 435 kts 304°
2026-04-29 17:41 35.13976 35.80321 40029 ft 436 kts 304°
2026-04-29 17:41 35.17641 35.74414 40027 ft 436 kts 304°
2026-04-29 17:42 35.20846 35.68171 40025 ft 433 kts 297°
2026-04-29 17:42 35.23697 35.61730 40021 ft 433 kts 296°
2026-04-29 17:43 35.26479 35.55284 40020 ft 433 kts 296°
2026-04-29 17:43 35.29285 35.48770 40025 ft 433 kts 296°
2026-04-29 17:44 35.32101 35.42246 40019 ft 433 kts 296°
2026-04-29 17:44 35.34913 35.35726 40018 ft 433 kts 296°
2026-04-29 17:45 35.37723 35.29201 40017 ft 433 kts 296°
2026-04-29 17:45 35.40531 35.22666 40024 ft 433 kts 296°
2026-04-29 17:46 35.43333 35.16135 40021 ft 432 kts 296°
2026-04-29 17:46 35.46127 35.09607 40023 ft 432 kts 296°
2026-04-29 17:47 35.48917 35.03075 40023 ft 432 kts 296°
2026-04-29 17:47 35.51705 34.96537 40025 ft 432 kts 296°
2026-04-29 17:48 35.54483 34.90007 40026 ft 432 kts 296°
2026-04-29 17:48 35.57246 34.83502 40021 ft 432 kts 296°
2026-04-29 17:49 35.60028 34.76939 40020 ft 432 kts 296°
2026-04-29 17:49 35.62784 34.70424 40019 ft 432 kts 296°
2026-04-29 17:50 35.65552 34.63867 40020 ft 432 kts 296°
2026-04-29 17:50 35.68312 34.57317 40017 ft 432 kts 296°
2026-04-29 17:51 35.71076 34.50745 40013 ft 432 kts 295°
2026-04-29 17:51 35.73832 34.44178 40016 ft 432 kts 295°
2026-04-29 17:52 35.76589 34.37595 40017 ft 432 kts 295°
2026-04-29 17:52 35.79335 34.31026 40017 ft 432 kts 295°
2026-04-29 17:53 35.82017 34.24598 40015 ft 432 kts 295°
2026-04-29 17:53 35.84718 34.18112 40016 ft 432 kts 295°
2026-04-29 17:53 35.86089 34.14814 39900 ft 432 kts 296°
2026-04-29 17:54 35.87456 34.11522 40000 ft 430 kts 297°
2026-04-29 17:54 35.89738 34.06018 40015 ft 438 kts 295°
2026-04-29 17:55 35.92486 33.99322 40009 ft 434 kts 293°
2026-04-29 17:55 35.94784 33.92469 40012 ft 431 kts 290°
2026-04-29 17:56 35.96915 33.85557 40009 ft 431 kts 290°
2026-04-29 17:56 35.99105 33.78649 40012 ft 432 kts 290°
2026-04-29 17:57 36.01341 33.71767 40013 ft 432 kts 290°
2026-04-29 17:57 36.03588 33.64889 40016 ft 432 kts 290°
2026-04-29 17:58 36.05833 33.57998 40014 ft 432 kts 290°
2026-04-29 17:58 36.08058 33.51141 40015 ft 432 kts 290°
2026-04-29 17:59 36.10294 33.44233 40018 ft 432 kts 290°
2026-04-29 17:59 36.12523 33.37331 40018 ft 432 kts 290°
2026-04-29 18:00 36.14749 33.30423 40017 ft 432 kts 290°
2026-04-29 18:00 36.16955 33.23557 40027 ft 432 kts 290°
2026-04-29 18:01 36.19175 33.16633 40023 ft 432 kts 290°
2026-04-29 18:01 36.21392 33.09702 40026 ft 433 kts 290°
2026-04-29 18:02 36.23591 33.02812 40033 ft 433 kts 290°
2026-04-29 18:02 36.25803 32.95865 40033 ft 433 kts 290°
2026-04-29 18:03 36.28009 32.88919 40040 ft 433 kts 290°
2026-04-29 18:03 36.30210 32.81972 40045 ft 433 kts 290°
2026-04-29 18:04 36.32408 32.75020 40042 ft 433 kts 290°
2026-04-29 18:04 36.34605 32.68052 40044 ft 433 kts 290°
2026-04-29 18:05 36.36782 32.61132 40052 ft 433 kts 290°
2026-04-29 18:05 36.38968 32.54170 40035 ft 433 kts 290°
2026-04-29 18:06 36.41148 32.47205 40031 ft 433 kts 290°
2026-04-29 18:06 36.43323 32.40242 40022 ft 432 kts 290°
2026-04-29 18:07 36.45495 32.33271 40031 ft 432 kts 290°
2026-04-29 18:07 36.47663 32.26295 40031 ft 432 kts 290°
2026-04-29 18:08 36.49817 32.19348 40174 ft 432 kts 290°
2026-04-29 18:08 36.50906 32.15826 40035 ft 439 kts 290°
2026-04-29 18:08 36.52000 32.12288 40024 ft 437 kts 290°
2026-04-29 18:09 36.54164 32.05275 40033 ft 432 kts 290°
2026-04-29 18:09 36.56302 31.98329 40034 ft 432 kts 290°
2026-04-29 18:10 36.58450 31.91334 40028 ft 433 kts 290°
2026-04-29 18:10 36.60596 31.84327 40026 ft 433 kts 290°
2026-04-29 18:11 36.62736 31.77324 40025 ft 433 kts 290°
2026-04-29 18:11 36.64872 31.70315 40023 ft 433 kts 290°
2026-04-29 18:12 36.67004 31.63300 40020 ft 433 kts 290°
2026-04-29 18:12 36.69121 31.56322 40020 ft 433 kts 289°
2026-04-29 18:13 36.71245 31.49300 40018 ft 433 kts 289°
2026-04-29 18:13 36.73367 31.42267 40018 ft 433 kts 289°
2026-04-29 18:14 36.75481 31.35243 40018 ft 433 kts 289°
2026-04-29 18:14 36.77596 31.28201 40014 ft 433 kts 289°
2026-04-29 18:15 36.79705 31.21159 40012 ft 433 kts 289°
2026-04-29 18:15 36.81809 31.14114 40010 ft 433 kts 289°
2026-04-29 18:16 36.83895 31.07115 40011 ft 433 kts 289°
2026-04-29 18:16 36.85996 31.00044 40011 ft 433 kts 289°
2026-04-29 18:17 36.88087 30.92992 40021 ft 433 kts 289°
2026-04-29 18:17 36.90176 30.85930 40022 ft 433 kts 289°
2026-04-29 18:18 36.92361 30.78920 40022 ft 434 kts 294°
2026-04-29 18:18 36.94950 30.72097 40021 ft 434 kts 294°
2026-04-29 18:19 36.97583 30.65353 40020 ft 434 kts 295°
2026-04-29 18:19 37.00238 30.58571 40023 ft 434 kts 295°
2026-04-29 18:20 37.02885 30.51778 40028 ft 434 kts 294°
2026-04-29 18:20 37.05527 30.44970 40034 ft 434 kts 294°
2026-04-29 18:21 37.08158 30.38175 40044 ft 434 kts 294°
2026-04-29 18:21 37.10790 30.31362 40043 ft 434 kts 294°
2026-04-29 18:22 37.13419 30.24544 40050 ft 434 kts 294°
2026-04-29 18:22 37.16025 30.17767 40048 ft 434 kts 294°
2026-04-29 18:23 37.18649 30.10932 40060 ft 434 kts 294°
2026-04-29 18:23 37.21265 30.04102 40051 ft 434 kts 294°
2026-04-29 18:24 37.23858 29.97316 40050 ft 434 kts 294°
2026-04-29 18:24 37.26465 29.90481 40051 ft 434 kts 294°
2026-04-29 18:25 37.29009 29.83795 40051 ft 434 kts 294°
2026-04-29 18:25 37.31590 29.76996 40053 ft 434 kts 294°
2026-04-29 18:26 37.34179 29.70161 40054 ft 433 kts 294°
2026-04-29 18:26 37.36768 29.63313 40051 ft 433 kts 294°
2026-04-29 18:27 37.39352 29.56462 40052 ft 433 kts 294°
2026-04-29 18:27 37.41933 29.49602 40050 ft 433 kts 294°
2026-04-29 18:28 37.44506 29.42752 40050 ft 433 kts 294°
2026-04-29 18:28 37.47078 29.35885 40054 ft 433 kts 294°
2026-04-29 18:29 37.49629 29.29062 40053 ft 433 kts 294°
2026-04-29 18:29 37.52196 29.22180 40059 ft 434 kts 294°
2026-04-29 18:29 37.53481 29.18727 39828 ft 434 kts 294°
2026-04-29 18:30 37.54754 29.15302 40217 ft 431 kts 295°
2026-04-29 18:30 37.57321 29.08388 40063 ft 440 kts 294°
2026-04-29 18:31 37.59893 29.01447 40035 ft 434 kts 294°
2026-04-29 18:31 37.62440 28.94559 40038 ft 433 kts 294°
2026-04-29 18:32 37.64973 28.87692 40031 ft 433 kts 294°
2026-04-29 18:32 37.68781 28.77337 40025 ft 434 kts 294°
2026-04-29 18:33 37.71313 28.70430 40026 ft 434 kts 294°
2026-04-29 18:33 37.73844 28.63514 40028 ft 434 kts 294°
2026-04-29 18:34 37.75948 28.57752 40028 ft 434 kts 294°
2026-04-29 18:34 37.78880 28.49702 40025 ft 434 kts 294°
2026-04-29 18:35 37.81401 28.42766 40023 ft 434 kts 294°
2026-04-29 18:35 37.83915 28.35829 40020 ft 434 kts 294°
2026-04-29 18:36 37.86429 28.28880 40022 ft 433 kts 294°
2026-04-29 18:36 37.88931 28.21947 40023 ft 433 kts 294°
2026-04-29 18:37 37.91415 28.15050 40018 ft 434 kts 294°
2026-04-29 18:37 37.93914 28.08089 40003 ft 434 kts 294°
2026-04-29 18:38 37.96407 28.01134 40003 ft 434 kts 294°
2026-04-29 18:38 37.98899 27.94165 40022 ft 434 kts 294°
2026-04-29 18:39 38.01388 27.87188 40021 ft 434 kts 294°
2026-04-29 18:39 38.03875 27.80201 40020 ft 434 kts 294°
2026-04-29 18:40 38.06357 27.73212 40021 ft 434 kts 294°
2026-04-29 18:40 38.08779 27.66375 40014 ft 433 kts 294°
2026-04-29 18:41 38.12474 27.55908 39853 ft 432 kts 294°
2026-04-29 18:41 38.13682 27.52477 40226 ft 430 kts 294°
2026-04-29 18:42 38.14927 27.48942 40105 ft 438 kts 293°
2026-04-29 18:42 38.16154 27.45450 40013 ft 438 kts 293°
2026-04-29 18:42 38.18624 27.38419 39901 ft 432 kts 294°
2026-04-29 18:43 38.19845 27.34934 40233 ft 432 kts 293°
2026-04-29 18:43 38.21077 27.31412 40071 ft 440 kts 293°
2026-04-29 18:43 38.23552 27.24326 40019 ft 435 kts 293°
2026-04-29 18:44 38.25998 27.17306 40021 ft 434 kts 293°
2026-04-29 18:44 38.28438 27.10282 40039 ft 434 kts 293°
2026-04-29 18:45 38.29964 27.04222 40022 ft 434 kts 281°
2026-04-29 18:45 38.30211 26.96546 40022 ft 436 kts 264°
2026-04-29 18:46 38.28407 26.87832 40023 ft 440 kts 254°
2026-04-29 18:46 38.26731 26.81650 40025 ft 441 kts 253°
2026-04-29 18:47 38.24692 26.74288 40038 ft 441 kts 253°
2026-04-29 18:47 38.22678 26.66919 40036 ft 441 kts 253°
2026-04-29 18:48 38.20693 26.59587 40042 ft 441 kts 253°
2026-04-29 18:48 38.19696 26.55899 39838 ft 440 kts 251°
2026-04-29 18:48 38.18702 26.52229 40213 ft 437 kts 253°
2026-04-29 18:49 38.16692 26.44825 40035 ft 446 kts 253°
2026-04-29 18:49 38.14671 26.37418 40049 ft 441 kts 253°
2026-04-29 18:50 38.12671 26.30110 40051 ft 441 kts 253°
2026-04-29 18:50 38.10656 26.22759 40057 ft 441 kts 253°
2026-04-29 18:51 38.08634 26.15407 40039 ft 441 kts 253°
2026-04-29 18:51 38.06610 26.08065 40058 ft 441 kts 253°
2026-04-29 18:52 38.04583 26.00734 40057 ft 441 kts 253°
2026-04-29 18:52 38.02544 25.93383 40061 ft 441 kts 253°
2026-04-29 18:53 38.00506 25.86052 40059 ft 441 kts 253°
2026-04-29 18:53 37.98472 25.78758 40065 ft 441 kts 253°
2026-04-29 18:54 37.96447 25.71515 40056 ft 441 kts 253°
2026-04-29 18:54 37.94395 25.64199 40066 ft 441 kts 253°
2026-04-29 18:55 37.92339 25.56887 40067 ft 441 kts 253°
2026-04-29 18:55 37.90274 25.49561 40066 ft 441 kts 253°
2026-04-29 18:56 37.89244 25.45911 39901 ft 439 kts 250°
2026-04-29 18:56 37.88217 25.42279 40224 ft 438 kts 252°
2026-04-29 18:56 37.87177 25.38609 40095 ft 446 kts 252°
2026-04-29 18:56 37.86129 25.34912 40070 ft 445 kts 252°
2026-04-29 18:57 37.84054 25.27620 40069 ft 441 kts 252°
2026-04-29 18:57 37.81971 25.20316 40073 ft 440 kts 252°
2026-04-29 18:58 37.80932 25.16677 39887 ft 439 kts 250°
2026-04-29 18:58 37.79898 25.13061 40235 ft 438 kts 252°
2026-04-29 18:58 37.78852 25.09403 40105 ft 445 kts 252°
2026-04-29 18:58 37.77797 25.05723 40067 ft 446 kts 252°
2026-04-29 18:59 37.75701 24.98437 40079 ft 441 kts 252°
2026-04-29 18:59 37.73605 24.91161 39876 ft 439 kts 250°
2026-04-29 19:00 37.72563 24.87554 40222 ft 438 kts 252°
2026-04-29 19:00 37.71512 24.83914 40107 ft 445 kts 252°
2026-04-29 19:00 37.69386 24.76578 40076 ft 442 kts 252°
2026-04-29 19:01 37.67272 24.69309 40080 ft 440 kts 252°
2026-04-29 19:01 37.65161 24.62063 40078 ft 440 kts 252°
2026-04-29 19:02 37.63401 24.56033 40075 ft 440 kts 252°
2026-04-29 19:02 37.60936 24.47613 40067 ft 440 kts 252°
2026-04-29 19:03 37.58811 24.40378 40075 ft 439 kts 252°
2026-04-29 19:03 37.57177 24.33010 40076 ft 435 kts 264°
2026-04-29 19:04 37.57247 24.25452 40076 ft 431 kts 281°
2026-04-29 19:04 37.58906 24.18189 40077 ft 432 kts 288°
2026-04-29 19:05 37.60922 24.11045 40075 ft 433 kts 289°
2026-04-29 19:05 37.62965 24.03906 39968 ft 430 kts 289°
2026-04-29 19:06 37.63968 24.00353 40209 ft 432 kts 289°
2026-04-29 19:06 37.64966 23.96787 40074 ft 439 kts 289°
2026-04-29 19:07 37.67965 23.85964 40074 ft 432 kts 289°
2026-04-29 19:07 37.69942 23.78794 40071 ft 432 kts 289°
2026-04-29 19:08 37.71917 23.71617 40070 ft 432 kts 289°
2026-04-29 19:08 37.73885 23.64445 40071 ft 431 kts 288°
2026-04-29 19:09 37.75834 23.57328 40065 ft 431 kts 288°
2026-04-29 19:09 37.77791 23.50161 40067 ft 431 kts 288°
2026-04-29 19:10 37.79743 23.42992 40069 ft 431 kts 288°
2026-04-29 19:10 37.81690 23.35822 40071 ft 431 kts 288°
2026-04-29 19:11 37.83631 23.28654 40070 ft 431 kts 288°
2026-04-29 19:11 37.84599 23.25071 39952 ft 429 kts 288°
2026-04-29 19:11 37.85562 23.21502 40218 ft 430 kts 288°
2026-04-29 19:11 37.86537 23.17885 40075 ft 437 kts 288°
2026-04-29 19:12 37.87519 23.14236 40064 ft 435 kts 288°
2026-04-29 19:12 37.89441 23.07079 40073 ft 430 kts 288°
2026-04-29 19:13 37.91358 22.99923 39953 ft 427 kts 288°
2026-04-29 19:13 37.92312 22.96356 40217 ft 429 kts 288°
2026-04-29 19:13 37.93141 22.92689 40082 ft 435 kts 283°
2026-04-29 19:14 37.94461 22.85244 40069 ft 431 kts 282°
2026-04-29 19:14 37.95689 22.77838 40074 ft 429 kts 282°
2026-04-29 19:15 37.96901 22.70442 40074 ft 428 kts 282°
2026-04-29 19:15 37.98113 22.63057 40076 ft 428 kts 282°
2026-04-29 19:16 37.99320 22.55706 40085 ft 428 kts 282°
2026-04-29 19:16 38.00530 22.48314 40080 ft 428 kts 282°
2026-04-29 19:17 38.01733 22.40928 40090 ft 427 kts 282°
2026-04-29 19:17 38.02930 22.33546 40086 ft 426 kts 282°
2026-04-29 19:18 38.04116 22.26196 40099 ft 426 kts 282°
2026-04-29 19:18 38.05296 22.18838 40107 ft 426 kts 282°
2026-04-29 19:19 38.06477 22.11466 40103 ft 426 kts 282°
2026-04-29 19:19 38.07066 22.07793 39884 ft 425 kts 281°
2026-04-29 19:19 38.07651 22.04129 40269 ft 423 kts 282°
2026-04-29 19:20 38.08823 21.96755 40104 ft 430 kts 282°
2026-04-29 19:20 38.09992 21.89360 40102 ft 425 kts 282°
2026-04-29 19:21 38.11148 21.82014 40103 ft 424 kts 282°
2026-04-29 19:21 38.12300 21.74661 40097 ft 425 kts 282°
2026-04-29 19:22 38.13452 21.67284 40099 ft 425 kts 282°
2026-04-29 19:22 38.14596 21.59922 40098 ft 425 kts 281°
2026-04-29 19:23 38.15731 21.52592 40074 ft 425 kts 281°
2026-04-29 19:23 38.16868 21.45213 40076 ft 425 kts 281°
2026-04-29 19:24 38.17998 21.37844 40073 ft 425 kts 281°
2026-04-29 19:24 38.19127 21.30451 40076 ft 425 kts 281°
2026-04-29 19:25 38.20249 21.23073 40079 ft 425 kts 281°
2026-04-29 19:25 38.21367 21.15691 40080 ft 425 kts 281°
2026-04-29 19:26 38.22473 21.08351 40085 ft 425 kts 281°
2026-04-29 19:26 38.23579 21.00977 40086 ft 424 kts 281°
2026-04-29 19:27 38.24683 20.93589 40086 ft 424 kts 281°
2026-04-29 19:27 38.25779 20.86216 40084 ft 424 kts 281°
2026-04-29 19:28 38.26872 20.78839 40088 ft 424 kts 281°
2026-04-29 19:28 38.27960 20.71455 40092 ft 424 kts 281°
2026-04-29 19:29 38.29043 20.64071 40092 ft 424 kts 281°
2026-04-29 19:29 38.30115 20.56725 40083 ft 425 kts 281°
2026-04-29 19:30 38.31190 20.49337 40086 ft 425 kts 281°
2026-04-29 19:30 38.32261 20.41930 40086 ft 424 kts 281°
2026-04-29 19:31 38.33326 20.34533 40086 ft 424 kts 281°
2026-04-29 19:31 38.34385 20.27151 40091 ft 424 kts 281°
2026-04-29 19:32 38.35432 20.19809 40092 ft 424 kts 281°
2026-04-29 19:32 38.36478 20.12443 40094 ft 424 kts 281°
2026-04-29 19:33 38.37476 20.05385 40092 ft 423 kts 281°
2026-04-29 19:33 38.38344 19.99218 40091 ft 423 kts 281°
2026-04-29 19:34 38.39373 19.91880 40091 ft 423 kts 281°
2026-04-29 19:34 38.40402 19.84499 40091 ft 423 kts 281°
2026-04-29 19:35 38.41428 19.77110 40092 ft 423 kts 281°
2026-04-29 19:35 38.42448 19.69729 40091 ft 422 kts 281°
2026-04-29 19:36 38.43463 19.62343 40088 ft 422 kts 281°
2026-04-29 19:36 38.44469 19.54991 40089 ft 422 kts 281°
2026-04-29 19:37 38.45474 19.47610 40086 ft 422 kts 281°
2026-04-29 19:37 38.46477 19.40208 40086 ft 422 kts 280°
2026-04-29 19:38 38.47472 19.32825 40086 ft 422 kts 280°
2026-04-29 19:38 38.48464 19.25433 40086 ft 422 kts 280°
2026-04-29 19:38 38.48959 19.21737 39938 ft 421 kts 279°
2026-04-29 19:39 38.49443 19.18112 40243 ft 421 kts 280°
2026-04-29 19:39 38.49938 19.14387 40112 ft 429 kts 280°
2026-04-29 19:39 38.50436 19.10638 40074 ft 427 kts 280°
2026-04-29 19:40 38.51416 19.03217 40081 ft 422 kts 280°
2026-04-29 19:40 38.51903 18.99519 39931 ft 420 kts 279°
2026-04-29 19:40 38.52457 18.95858 40235 ft 420 kts 283°
2026-04-29 19:40 38.53124 18.92233 40107 ft 428 kts 284°
2026-04-29 19:41 38.53858 18.88542 40073 ft 427 kts 284°
2026-04-29 19:41 38.55317 18.81234 40079 ft 422 kts 284°
2026-04-29 19:41 38.56021 18.77599 39930 ft 420 kts 283°
2026-04-29 19:42 38.56708 18.73977 40233 ft 420 kts 283°
2026-04-29 19:42 38.58078 18.66610 40067 ft 425 kts 283°
2026-04-29 19:43 38.59417 18.59338 40078 ft 421 kts 283°
2026-04-29 19:43 38.60754 18.52059 40072 ft 421 kts 283°
2026-04-29 19:44 38.62089 18.44770 40071 ft 421 kts 283°
2026-04-29 19:44 38.63421 18.37478 40070 ft 421 kts 283°
2026-04-29 19:45 38.64748 18.30184 40070 ft 421 kts 283°
2026-04-29 19:45 38.66072 18.22879 40069 ft 421 kts 283°
2026-04-29 19:46 38.67391 18.15577 40065 ft 421 kts 283°
2026-04-29 19:46 38.68704 18.08275 40067 ft 421 kts 283°
2026-04-29 19:47 38.70005 18.01017 40066 ft 421 kts 283°
2026-04-29 19:47 38.71311 17.93702 40064 ft 421 kts 283°
2026-04-29 19:48 38.72611 17.86391 40062 ft 421 kts 283°
2026-04-29 19:48 38.73906 17.79079 40062 ft 421 kts 283°
2026-04-29 19:49 38.75195 17.71773 40054 ft 421 kts 283°
2026-04-29 19:49 38.76481 17.64454 40056 ft 420 kts 283°
2026-04-29 19:50 38.77761 17.57143 40050 ft 420 kts 283°
2026-04-29 19:50 38.79036 17.49830 40051 ft 420 kts 283°
2026-04-29 19:51 38.80308 17.42511 40046 ft 420 kts 282°
2026-04-29 19:51 38.81573 17.35200 40046 ft 420 kts 282°
2026-04-29 19:52 38.82826 17.27929 40044 ft 420 kts 282°
2026-04-29 19:52 38.84083 17.20604 40046 ft 420 kts 282°
2026-04-29 19:53 38.85336 17.13276 40047 ft 420 kts 282°
2026-04-29 19:53 38.86585 17.05938 40047 ft 420 kts 282°
2026-04-29 19:54 38.88449 16.94936 40047 ft 420 kts 282°
2026-04-29 19:54 38.89687 16.87595 39889 ft 420 kts 282°
2026-04-29 19:55 38.90303 16.83931 39996 ft 419 kts 282°
2026-04-29 19:55 38.90917 16.80265 40162 ft 423 kts 282°
2026-04-29 19:55 38.91533 16.76586 40053 ft 428 kts 282°
2026-04-29 19:55 38.92154 16.72870 40054 ft 423 kts 282°
2026-04-29 19:56 38.93379 16.65511 40066 ft 420 kts 282°
2026-04-29 19:56 38.94597 16.58165 40070 ft 420 kts 282°
2026-04-29 19:57 38.95607 16.52050 40070 ft 421 kts 282°
2026-04-29 19:57 38.97021 16.43454 40075 ft 421 kts 282°
2026-04-29 19:58 38.98227 16.36093 40075 ft 421 kts 282°
2026-04-29 19:58 38.99418 16.28791 40074 ft 419 kts 282°
2026-04-29 19:59 39.00606 16.21471 40075 ft 417 kts 282°
2026-04-29 19:59 39.01789 16.14162 40074 ft 418 kts 282°
2026-04-29 20:00 39.02967 16.06846 40073 ft 418 kts 282°
2026-04-29 20:00 39.04145 15.99497 40064 ft 418 kts 282°
2026-04-29 20:01 39.05315 15.92176 40059 ft 418 kts 281°
2026-04-29 20:01 39.06470 15.84911 40058 ft 418 kts 281°
2026-04-29 20:02 39.07631 15.77579 40059 ft 418 kts 281°
2026-04-29 20:02 39.08599 15.71440 40059 ft 418 kts 281°
2026-04-29 20:03 39.09939 15.62911 40057 ft 418 kts 281°
2026-04-29 20:03 39.11086 15.55569 40059 ft 418 kts 281°
2026-04-29 20:04 39.12232 15.48209 40059 ft 418 kts 281°
2026-04-29 20:04 39.13364 15.40899 40059 ft 418 kts 281°
2026-04-29 20:05 39.14499 15.33547 40053 ft 418 kts 281°
2026-04-29 20:05 39.15630 15.26183 40051 ft 419 kts 281°
2026-04-29 20:06 39.16758 15.18808 40053 ft 419 kts 281°
2026-04-29 20:06 39.17881 15.11432 40053 ft 419 kts 281°
2026-04-29 20:07 39.19000 15.04044 40053 ft 419 kts 281°
2026-04-29 20:07 39.20110 14.96687 40053 ft 419 kts 281°
2026-04-29 20:08 39.21040 14.90499 40057 ft 419 kts 281°
2026-04-29 20:08 39.22325 14.81911 40056 ft 420 kts 281°
2026-04-29 20:09 39.23427 14.74506 40056 ft 420 kts 281°
2026-04-29 20:09 39.24522 14.67116 40056 ft 420 kts 281°
2026-04-29 20:10 39.25616 14.59700 40053 ft 420 kts 281°
2026-04-29 20:10 39.26704 14.52288 40053 ft 420 kts 280°
2026-04-29 20:11 39.27780 14.44923 40050 ft 420 kts 280°
2026-04-29 20:11 39.28858 14.37515 40050 ft 420 kts 280°
2026-04-29 20:12 39.29932 14.30095 40050 ft 420 kts 280°
2026-04-29 20:12 39.31413 14.22793 40050 ft 420 kts 286°
2026-04-29 20:13 39.32871 14.16801 40051 ft 421 kts 287°
2026-04-29 20:13 39.34964 14.08426 40051 ft 421 kts 287°
2026-04-29 20:14 39.36762 14.01219 40051 ft 421 kts 287°
2026-04-29 20:14 39.38550 13.93998 40051 ft 421 kts 287°
2026-04-29 20:15 39.40329 13.86780 40053 ft 421 kts 287°
2026-04-29 20:15 39.42103 13.79559 40053 ft 421 kts 286°
2026-04-29 20:16 39.43875 13.72321 40068 ft 422 kts 286°
2026-04-29 20:16 39.45643 13.65082 40050 ft 422 kts 286°
2026-04-29 20:17 39.47398 13.57876 40050 ft 422 kts 286°
2026-04-29 20:17 39.49155 13.50637 40050 ft 422 kts 286°
2026-04-29 20:18 39.50912 13.43376 40050 ft 422 kts 286°
2026-04-29 20:18 39.52666 13.36102 40050 ft 423 kts 286°
2026-04-29 20:19 39.54413 13.28837 39962 ft 421 kts 287°
2026-04-29 20:19 39.55286 13.25200 40191 ft 424 kts 286°
2026-04-29 20:19 39.56167 13.21519 40053 ft 430 kts 286°
2026-04-29 20:20 39.57922 13.14182 40051 ft 423 kts 286°
2026-04-29 20:20 39.59364 13.08134 40052 ft 423 kts 285°
2026-04-29 20:21 39.61100 13.00828 40050 ft 424 kts 285°
2026-04-29 20:21 39.62833 12.93510 40051 ft 424 kts 285°
2026-04-29 20:22 39.64551 12.86236 40050 ft 424 kts 285°
2026-04-29 20:22 39.66272 12.78924 40050 ft 424 kts 285°
2026-04-29 20:23 39.67992 12.71592 40051 ft 425 kts 285°
2026-04-29 20:23 39.69712 12.64243 40050 ft 426 kts 285°
2026-04-29 20:24 39.71428 12.56882 40051 ft 426 kts 285°
2026-04-29 20:24 39.73132 12.49550 40051 ft 426 kts 285°
2026-04-29 20:25 39.74839 12.42182 40050 ft 426 kts 285°
2026-04-29 20:25 39.76542 12.34809 40051 ft 426 kts 285°
2026-04-29 20:26 39.78246 12.27406 40051 ft 427 kts 285°
2026-04-29 20:26 39.79942 12.20013 40051 ft 427 kts 285°
2026-04-29 20:27 39.81362 12.13806 40048 ft 427 kts 285°
2026-04-29 20:27 39.83327 12.05186 40048 ft 427 kts 285°
2026-04-29 20:28 39.85016 11.97754 40050 ft 428 kts 285°
2026-04-29 20:28 39.86704 11.90299 40054 ft 431 kts 285°
2026-04-29 20:29 39.88386 11.82842 40052 ft 432 kts 285°
2026-04-29 20:29 39.90076 11.75329 40049 ft 432 kts 285°
2026-04-29 20:30 39.91762 11.67812 40049 ft 432 kts 285°
2026-04-29 20:30 39.93443 11.60286 40051 ft 433 kts 285°
2026-04-29 20:31 39.95122 11.52748 40046 ft 434 kts 285°
2026-04-29 20:31 39.96796 11.45201 40049 ft 434 kts 284°
2026-04-29 20:32 39.98470 11.37634 40049 ft 434 kts 284°
2026-04-29 20:32 40.00136 11.30075 40059 ft 434 kts 284°
2026-04-29 20:33 40.01786 11.22561 40051 ft 435 kts 284°
2026-04-29 20:33 40.03445 11.14980 40051 ft 435 kts 284°
2026-04-29 20:34 40.05101 11.07387 40054 ft 435 kts 284°
2026-04-29 20:34 40.06753 10.99789 40042 ft 435 kts 284°
2026-04-29 20:35 40.08378 10.92287 40051 ft 435 kts 284°
2026-04-29 20:35 40.10020 10.84682 40042 ft 435 kts 284°
2026-04-29 20:36 40.11656 10.77075 40049 ft 435 kts 284°
2026-04-29 20:36 40.13279 10.69503 40049 ft 435 kts 284°
2026-04-29 20:37 40.14905 10.61889 40053 ft 435 kts 284°
2026-04-29 20:37 40.16451 10.54254 40050 ft 435 kts 279°
2026-04-29 20:38 40.17539 10.46466 40040 ft 436 kts 278°
2026-04-29 20:38 40.18538 10.38645 40041 ft 436 kts 278°
2026-04-29 20:39 40.19521 10.30808 40046 ft 436 kts 278°
2026-04-29 20:39 40.20502 10.22989 40031 ft 436 kts 278°
2026-04-29 20:40 40.21486 10.15147 39839 ft 436 kts 278°
2026-04-29 20:40 40.21975 10.11244 39978 ft 434 kts 279°
2026-04-29 20:40 40.22463 10.07331 40142 ft 439 kts 278°
2026-04-29 20:41 40.22957 10.03356 40038 ft 443 kts 278°
2026-04-29 20:41 40.23449 9.99393 40032 ft 440 kts 278°
2026-04-29 20:41 40.24422 9.91514 40038 ft 437 kts 278°
2026-04-29 20:42 40.25380 9.83714 40037 ft 437 kts 278°
2026-04-29 20:42 40.26340 9.75842 40033 ft 439 kts 278°
2026-04-29 20:43 40.27299 9.67937 40038 ft 439 kts 278°
2026-04-29 20:43 40.28254 9.60025 40037 ft 439 kts 278°
2026-04-29 20:44 40.29203 9.52105 40042 ft 439 kts 278°
2026-04-29 20:44 40.30146 9.44197 40037 ft 439 kts 278°
2026-04-29 20:45 40.31085 9.36275 40031 ft 441 kts 278°
2026-04-29 20:45 40.32018 9.28365 40044 ft 441 kts 278°
2026-04-29 20:46 40.32947 9.20419 40040 ft 441 kts 278°
2026-04-29 20:46 40.33873 9.12451 40037 ft 441 kts 278°
2026-04-29 20:47 40.34791 9.04503 40036 ft 442 kts 278°
2026-04-29 20:47 40.35707 8.96533 40033 ft 442 kts 278°
2026-04-29 20:48 40.36618 8.88551 40025 ft 442 kts 277°
2026-04-29 20:48 40.37519 8.80618 40021 ft 442 kts 277°
2026-04-29 20:49 40.38419 8.72636 40025 ft 442 kts 277°
2026-04-29 20:49 40.39314 8.64642 40026 ft 443 kts 277°
2026-04-29 20:50 40.40203 8.56654 40018 ft 443 kts 277°
2026-04-29 20:50 40.41089 8.48646 40009 ft 443 kts 277°
2026-04-29 20:51 40.41962 8.40694 40003 ft 443 kts 277°
2026-04-29 20:51 40.42837 8.32685 40006 ft 443 kts 277°